RADUGA-1M 2

Last updated on Thu Nov 21 2024 00:02:41 GMT+0000 (Coordinated Universal Time)

1 36358U 10002A 24325.54089772 -.00000182 00000+0 00000+0 0 9996 2 36358 2.1237 86.3182 0004232 172.2106 81.2519 1.00270572 44334
UTC large
Height (km)
Speed (km/s)
/
Latitude / Longitude
Inclination (degrees)
Orbital Period (minutes)
Azimuth
Elevation
Range (km)
Doppler Factor

Next 0 passes for location: London (51.5072 / 0.1276)

Sorry there are no passes over London.